PIESAT-2 11

Last updated on Thu Jan 16 2025 00:02:04 GMT+0000 (Coordinated Universal Time)

1 62335U 24241C 25015.56995425 .00015625 00000+0 87724-3 0 9999 2 62335 97.4930 325.2205 0006292 147.2678 212.8945 15.13402241 4509
UTC large
Height (km)
Speed (km/s)
/
Latitude / Longitude
Inclination (degrees)
Orbital Period (minutes)
Azimuth
Elevation
Range (km)
Doppler Factor

Next 0 passes for location: London (51.5072 / 0.1276)

Sorry there are no passes over London.